�������C�����ː����j�^�v���󋵏��
Date,Time,Cs137(Bq/L),Cs134(Bq/L),�S��(Bq/L)
2017/11/07,00:00,0.53,0.041,ND
2017/11/07,00:10,0.54,0.035,ND
2017/11/07,00:20,0.64,ND,ND
2017/11/07,00:30,0.60,ND,ND
2017/11/07,00:40,0.55,0.028,ND
2017/11/07,00:50,0.55,0.035,ND
2017/11/07,01:00,0.66,ND,ND
2017/11/07,01:10,0.66,ND,ND
2017/11/07,01:20,0.65,ND,ND
2017/11/07,01:30,0.64,ND,ND
2017/11/07,01:40,0.64,ND,ND
2017/11/07,01:50,0.53,0.035,ND
2017/11/07,02:00,0.51,0.037,ND
2017/11/07,02:10,0.51,0.027,ND
2017/11/07,02:20,0.56,ND,ND
2017/11/07,02:30,0.57,ND,ND
2017/11/07,02:40,0.55,ND,ND
2017/11/07,02:50,0.55,ND,ND
2017/11/07,03:00,0.56,ND,ND
2017/11/07,03:10,0.60,ND,ND
2017/11/07,03:20,0.60,ND,ND
2017/11/07,03:30,0.57,ND,ND
2017/11/07,03:40,0.58,ND,ND
2017/11/07,03:50,0.51,ND,ND
2017/11/07,04:00,0.50,ND,ND
2017/11/07,04:10,0.49,ND,ND
2017/11/07,04:20,0.49,ND,ND
2017/11/07,04:30,0.49,ND,ND
2017/11/07,04:40,0.48,ND,ND
2017/11/07,04:50,0.51,ND,ND
2017/11/07,05:00,0.51,ND,ND
2017/11/07,05:10,0.50,ND,ND
2017/11/07,05:20,0.46,0.027,ND
2017/11/07,05:30,0.51,ND,ND
2017/11/07,05:40,0.51,ND,ND
2017/11/07,05:50,0.49,ND,ND
2017/11/07,06:00,0.53,ND,ND
2017/11/07,06:10,0.55,ND,ND
2017/11/07,06:20,0.53,ND,ND
2017/11/07,06:30,0.52,ND,ND
2017/11/07,06:40,0.53,ND,ND
2017/11/07,06:50,0.53,ND,ND
2017/11/07,07:00,0.52,ND,ND
2017/11/07,07:10,0.53,ND,ND
2017/11/07,07:20,0.47,ND,ND
2017/11/07,07:30,0.48,ND,ND
2017/11/07,07:40,0.47,ND,ND
2017/11/07,07:50,0.45,0.025,ND
2017/11/07,08:00,0.45,0.029,ND
2017/11/07,08:10,0.49,ND,ND
2017/11/07,08:20,0.50,ND,ND
2017/11/07,08:30,0.51,ND,ND
2017/11/07,08:40,0.51,ND,ND
2017/11/07,08:50,0.49,0.027,ND
2017/11/07,09:00,0.53,ND,ND
2017/11/07,09:10,0.53,ND,ND
2017/11/07,09:20,0.52,ND,ND
2017/11/07,09:30,0.49,0.026,ND
2017/11/07,09:40,0.55,ND,ND
2017/11/07,09:50,0.53,ND,ND
2017/11/07,10:00,0.50,ND,ND
2017/11/07,10:10,0.48,ND,ND
2017/11/07,10:20,0.46,0.025,ND
2017/11/07,10:30,0.48,ND,ND
2017/11/07,10:40,0.45,ND,ND
2017/11/07,10:50,0.44,ND,ND
2017/11/07,11:00,0.40,0.028,ND
2017/11/07,11:10,0.43,0.030,ND
2017/11/07,11:20,0.46,ND,ND
2017/11/07,11:30,0.44,ND,ND
2017/11/07,11:40,0.45,ND,ND
2017/11/07,11:50,0.42,ND,ND
2017/11/07,12:00,0.43,ND,ND
2017/11/07,12:10,0.40,ND,ND
2017/11/07,12:20,0.41,ND,ND
2017/11/07,12:30,0.43,ND,ND
2017/11/07,12:40,0.42,ND,ND
2017/11/07,12:50,0.42,ND,ND
2017/11/07,13:00,0.41,ND,ND
2017/11/07,13:10,0.40,ND,ND
2017/11/07,13:20,0.39,ND,ND
2017/11/07,13:30,0.37,ND,ND
2017/11/07,13:40,0.37,ND,ND
2017/11/07,13:50,0.36,ND,ND
2017/11/07,14:00,0.38,ND,ND
2017/11/07,14:10,0.39,ND,ND
2017/11/07,14:20,0.38,ND,ND
2017/11/07,14:30,0.37,ND,ND
2017/11/07,14:40,0.36,ND,ND
2017/11/07,14:50,0.35,ND,ND
2017/11/07,15:00,0.35,ND,ND
2017/11/07,15:10,0.35,ND,9.5
2017/11/07,15:20,0.39,ND,ND
2017/11/07,15:30,0.38,ND,ND
2017/11/07,15:40,0.40,ND,ND
2017/11/07,15:50,0.36,ND,ND
2017/11/07,16:00,0.35,ND,ND
2017/11/07,16:10,0.36,ND,ND
2017/11/07,16:20,0.36,ND,ND
2017/11/07,16:30,0.36,ND,ND
2017/11/07,16:40,0.36,ND,ND
2017/11/07,16:50,0.36,ND,ND
2017/11/07,17:00,0.36,ND,ND
2017/11/07,17:10,0.36,ND,ND
2017/11/07,17:20,0.37,ND,ND
2017/11/07,17:30,0.38,ND,ND
2017/11/07,17:40,0.36,ND,ND
2017/11/07,17:50,0.39,ND,ND
2017/11/07,18:00,0.43,ND,ND
2017/11/07,18:10,0.43,ND,ND
2017/11/07,18:20,0.41,ND,ND
2017/11/07,18:30,0.43,ND,ND
2017/11/07,18:40,0.44,ND,ND
2017/11/07,18:50,0.42,ND,ND
2017/11/07,19:00,0.43,ND,ND
2017/11/07,19:10,0.43,ND,ND
2017/11/07,19:20,0.46,ND,ND
2017/11/07,19:30,0.44,ND,ND
2017/11/07,19:40,0.40,ND,ND
2017/11/07,19:50,0.46,ND,ND
2017/11/07,20:00,0.43,ND,ND
2017/11/07,20:10,0.43,ND,ND
2017/11/07,20:20,0.43,ND,ND
2017/11/07,20:30,0.43,ND,ND
2017/11/07,20:40,0.49,ND,ND
2017/11/07,20:50,0.50,ND,ND
2017/11/07,21:00,0.49,ND,ND
2017/11/07,21:10,0.48,ND,ND
2017/11/07,21:20,0.43,ND,ND
2017/11/07,21:30,0.44,ND,ND
2017/11/07,21:40,0.43,ND,ND
2017/11/07,21:50,0.44,ND,ND
2017/11/07,22:00,0.43,ND,ND
2017/11/07,22:10,0.43,ND,ND
2017/11/07,22:20,0.45,ND,ND
2017/11/07,22:30,0.47,ND,ND
2017/11/07,22:40,0.49,ND,11
2017/11/07,22:50,0.52,ND,11
2017/11/07,23:00,0.55,ND,ND
2017/11/07,23:10,0.58,ND,ND
2017/11/07,23:20,0.61,ND,ND
2017/11/07,23:30,0.59,ND,ND
2017/11/07,23:40,0.57,0.026,ND
2017/11/07,23:50,0.60,ND,ND
